This demonstration page uses our WeatherBlox Daily Observations layout. Learn more.

Left ArrowRight Arrow

39.08367, -84.50855

Hourly Observations for January 24, 2018

Temp ( °F °C ) Dew Point ( °F °C ) Humidity (%) Winds ( mph kmh ) Pressure ( in mb ) Visibility ( mi km ) Precip ( " mm )
12:53 am 00:53 Cloudy 34 1.1 29 -1.7 82 82 W 10 17 30.17 1022 10 16.0934 0 0.0254
1:53 am 01:53 Cloudy 33 0.6 27 -2.8 78 78 WNW 9 15 30.19 1022 10 16.0934 0 0.0254
2:53 am 02:53 Cloudy 33 0.6 26 -3.3 75 75 NW 10 17 30.22 1023 10 16.0934 0 0
3:53 am 03:53 Cloudy 33 0.6 26 -3.3 75 75 W 6 9 30.23 1024 10 16.0934 0 0
4:09 am 04:09 Cloudy 33 0.6 25 -3.9 72 72 NNW 6 9 30.24 1024 10 16.0934 0 0
4:50 am 04:50 Cloudy 34 1 25 -4 70 70 VRB 3 6 30.24 1024 10 16.0934 0 0
4:53 am 04:53 Cloudy 33 0.6 25 -3.9 72 72 W 7 11 30.23 1024 10 16.0934 0 0
5:53 am 05:53 Cloudy 31 -0.6 28 -2.2 89 89 W 5 7 30.25 1024 8 12.87472 0 0
6:07 am 06:07 Cloudy 31 -0.6 29 -1.7 92 92 Calm 30.27 1025 10 16.0934 0 0
6:53 am 06:53 Cloudy 31 -0.6 29 -1.7 92 92 SSW 5 7 30.25 1025 10 16.0934 0 0
7:53 am 07:53 Cloudy 31 -0.6 30 -1.1 96 96 S 5 7 30.27 1025 9 14.48406 0 0
8:43 am 08:43 Cloudy with Mist and Fog 31 -0.6 30 -1.1 96 96 S 5 7 30.3 1026 4 6.43736 0 0.0254
8:53 am 08:53 Cloudy with Light Snow 31 -0.6 30 -1.1 96 96 S 5 7 30.28 1025 3 4.82802 0 0.0254
8:59 am 08:59 Cloudy with Light Snow 31 -0.6 30 -1.1 96 96 Calm 30.3 1026 1.5 2.41401 0 0.0254
9:04 am 09:04 Cloudy with Light Snow 32 0 30 -1.1 92 92 WSW 3 6 30.3 1026 2.5 4.02335 0.01 0.254
9:21 am 09:21 Cloudy with Light Snow 32 0 31 -0.6 96 96 WSW 3 6 30.3 1026 2.5 4.02335 0.01 0.254
9:31 am 09:31 Cloudy with Light Snow 32 0 30 -1.1 92 92 WSW 7 11 30.3 1026 2.5 4.02335 0.01 0.254
9:41 am 09:41 Cloudy with Light Snow 32 0 30 -1.1 92 92 WSW 5 7 30.3 1026 2.5 4.02335 0.01 0.254
9:53 am 09:53 Cloudy with Mist and Fog 32 0 29 -1.7 88 88 W 6 9 30.28 1026 4 6.43736 0.01 0.254
10:33 am 10:33 Cloudy with Mist and Fog 32 0 30 -1.1 92 92 W 5 7 30.3 1026 3 4.82802 0 0
10:53 am 10:53 Cloudy 32 0 29 -1.7 88 88 W 3 6 30.29 1026 7 11.26538 0 0
11:53 am 11:53 Cloudy 33 0.6 28 -2.2 82 82 W 7 11 30.29 1026 9 14.48406 0.01 0.254
12:53 pm 12:53 Cloudy 33 0.6 29 -1.7 85 85 W 8 13 30.26 1025 10 16.0934 0 0.0254
1:53 pm 13:53 Cloudy 34 1.1 28 -2.2 79 79 W 13 20 30.25 1024 10 16.0934 0 0
2:00 pm 14:00 Cloudy 33 0.6 27 -2.8 78 78 W 9 15 30.27 1025 10 16.0934 0 0
2:53 pm 14:53 Cloudy with Light Snow 32 0 28 -2.2 85 85 W 15 24 30.27 1025 9 14.48406 0 0
3:01 pm 15:01 Cloudy with Light Snow 32 0 27 -2.8 82 82 WSW 16 26 30.3 1026 5 8.0467 0 0.0254
3:53 pm 15:53 Cloudy with Light Snow 32 0 27 -2.8 82 82 W 10 17 30.29 1026 7 11.26538 0 0.0254
4:00 pm 16:00 Cloudy with Light Snow 32 0 26 -3.3 79 79 W 12 19 30.3 1026 6 9.65604 0 0.0254
4:53 pm 16:53 Cloudy 32 0 25 -3.9 75 75 W 10 17 30.32 1027 10 16.0934 0 0.0254
5:41 pm 17:41 Cloudy with Light Snow 32 0 24 -4.4 73 73 WNW 8 13 30.36 1028 6 9.65604 0 0.0254
5:51 pm 17:51 Cloudy with Light Snow 32 0 25 -4 75 75 VRB 5 7 30.36 1028 9 14.48406 0 0.0254
5:53 pm 17:53 Cloudy 32 0 24 -4.4 73 73 VRB 6 9 30.34 1028 9 14.48406 0 0.0254
6:53 pm 18:53 Cloudy 32 0 23 -5 69 69 VRB 6 9 30.36 1028 10 16.0934 0 0
7:53 pm 19:53 Cloudy 31 -0.6 22 -5.6 69 69 W 8 13 30.38 1029 10 16.0934 0 0
8:53 pm 20:53 Cloudy 31 -0.6 22 -5.6 69 69 W 9 15 30.4 1029 10 16.0934 0 0
9:00 pm 21:00 Cloudy 31 -0.6 23 -5 72 72 W 9 15 30.42 1030 10 16.0934 0 0
9:45 pm 21:45 Cloudy 31 -0.6 23 -5 72 72 VRB 5 7 30.42 1030 10 16.0934 0 0
9:53 pm 21:53 Cloudy 31 -0.6 21 -6.1 67 67 NW 7 11 30.4 1030 10 16.0934 0 0
10:19 pm 22:19 Cloudy 31 -0.6 22 -5.6 69 69 WNW 6 9 30.42 1030 10 16.0934 0 0
10:50 pm 22:50 Cloudy 30 -1 21 -6 69 69 WNW 6 9 30.45 1031 10 16.0934 0 0
10:53 pm 22:53 Cloudy 31 -0.6 21 -6.1 67 67 VRB 6 9 30.42 1030 10 16.0934 0 0
11:53 pm 23:53 Cloudy 30 -1.1 22 -5.6 72 72 W 10 17 30.43 1030 10 16.0934 0 0

Powered by AerisWeather